Home   Weather   Waren (Müritz)   Past weeks

Flag for Germany Past Weather in Waren (Müritz), Mecklenburg-Western Pomerania, Germany — Yesterday and Last 2 Weeks

Now
36 °F

Scattered showers. Passing clouds.


Feels Like: 26 °F
Forecast: 32 / 42 °F
Wind: 15 mph from West

Location: Laage

Current Time: Feb 24, 2017 at 6:49:40 pm

Latest Report: Feb 24, 2017 at 5:39 pm


Visibility: 5 mi

Pressure: 29.80 "Hg

Humidity: 81%

Dew Point: 30 °F

Location of Waren (Müritz)Location

Past Weather in Waren (Müritz) — Graph

°F

Waren (Müritz) Temperature Yesterday

Maximum temperature yesterday: 46 °F (at 6:11 pm)
Minimum temperature yesterday: 39 °F (at 1:05 pm)
Average temperature yesterday: 42 °F

High & Low Weather Summary for the Past Weeks

 TemperatureHumidityPressure
High50 °F (Feb 16, 12:56 pm)100% (Feb 17, 10:20 am)30.69 "Hg (Feb 17, 10:20 am)
Low19 °F (Feb 9, 11:20 pm)46% (Feb 15, 2:20 pm)28.94 "Hg (Feb 23, 10:20 pm)
Average36 °F82%30.06 "Hg
* Reported Feb 9 5:20 pm — Feb 24 5:33 pm, Waren (Müritz), Weather by CustomWeather, © 2017

Note: Actual official high and low records may vary slightly from our data, if they occured in-between our weather recording intervals... More about our weather records

Advertising

Waren (Müritz) Weather History for the Previous 24 Hours

Scroll right to see more
 ConditionsComfort  
Time TempWeatherWind HumidityBarometerVisibility
5:33 pm
Fri, Feb 24
36 °FScattered showers. Scattered clouds.15 mph81%29.80 "Hg3 mi
4:20 pm39 °FPassing clouds.15 mph52%29.77 "HgN/A
3:20 pm41 °FPassing clouds.18 mph53%29.77 "HgN/A
2:30 pm39 °FPassing clouds.18 mph61%29.74 "HgN/A
1:20 pm39 °FPassing clouds.17 mph65%29.71 "HgN/A
12:20 pm39 °FScattered clouds.18 mph70%29.68 "HgN/A
11:20 am37 °FPartly sunny.15 mph75%29.65 "HgN/A
10:20 am34 °FPartly sunny.9 mph81%29.59 "HgN/A
10:01 am34 °FBroken clouds.7 mph81%29.59 "HgN/A
9:30 am32 °FPartly sunny.10 mph93%29.56 "HgN/A
8:45 am32 °FLight snow. Ice fog.14 mph87%29.50 "Hg1 mi
8:30 am32 °FLight snow. Ice fog.14 mph93%29.47 "Hg2 mi
7:20 am34 °FLight rain. Fog.18 mph87%29.39 "Hg1 mi
7:04 am34 °FLight rain. Fog.20 mph87%29.36 "Hg2 mi
6:33 am34 °FLight rain. Fog.22 mph93%29.30 "Hg3 mi
6:20 am34 °FLight rain. Passing clouds.21 mph93%29.27 "Hg5 mi
6:10 am34 °FLight rain. Passing clouds.24 mph93%29.24 "Hg4 mi
5:35 am36 °FPassing clouds.26 mph87%29.18 "Hg6 mi
5:20 am36 °FDrizzle. Fog.25 mph93%29.15 "Hg3 mi
4:20 am36 °FPassing clouds.24 mph93%29.09 "HgN/A
3:47 am41 °FLight rain. Fog.17 mph93%29.03 "Hg3 mi
3:20 am41 °FPassing clouds.14 mph93%29.03 "HgN/A
2:20 am41 °FPassing clouds.15 mph87%29.00 "HgN/A
1:20 am41 °FLight rain. Passing clouds.17 mph93%28.97 "HgN/A
12:20 am41 °FLight rain. Passing clouds.15 mph93%28.94 "HgN/A
11:20 pm
Thu, Feb 23
41 °FLight rain. Passing clouds.9 mph93%28.94 "HgN/A
10:20 pm43 °FPassing clouds.17 mph81%28.94 "HgN/A
9:45 pm43 °FPassing clouds.13 mph87%28.97 "HgN/A
9:20 pm43 °FPassing clouds.12 mph87%28.97 "HgN/A
8:20 pm43 °FPassing clouds.12 mph87%28.97 "HgN/A
8:05 pm43 °FPassing clouds.10 mph93%28.97 "HgN/A
7:20 pm45 °FPartly cloudy.17 mph81%29.00 "HgN/A
7:03 pm45 °FRain showers. Passing clouds.18 mph87%29.00 "HgN/A
6:49 pm45 °FThunderstorms. Partly cloudy.14 mph87%29.00 "HgN/A
6:31 pm46 °FRain showers. Fog.20 mph82%29.00 "Hg2 mi
6:11 pm46 °FPassing clouds.13 mph93%29.00 "HgN/A
Weather by CustomWeather, © 2017

See weather overviewHow to use our weather pages